Wind_Speed
5 5 4 4 6 7 11 12 13 18 18 17 13 14 17 18 20 22 23 24 24 24 24 25 25 24 25 27 25 25 26 26 26 28 29 29 31 31 34 33 35 36 37 35 34 35 37 36 36
5 5 5 7 10 12 14 13 15 16 16 16 13 13 15 17 19 21 22 24 26 27 28 28 30 30 30 31 31 30 29 30 30 30 30 31 33 33 33 33 34 34 35 39 39 38 38 39 39
6 7 8 10 12 14 11 9 13 9 10 14 18 19 18 20 21 23 24 25 28 31 31 33 35 36 36 36 36 37 37 35 35 35 35 35 35 36 36 37 38 35 34 35 39 42 42 41 41
6 7 9 9 6 12 10 9 14 16 15 16 18 20 22 23 25 27 29 31 33 33 34 34 35 36 37 39 40 41 40 40 40 40 40 40 39 39 40 40 39 39 39 40 36 35 43 46 43
5 7 10 11 6 6 11 12 12 16 17 18 18 18 21 23 26 30 33 35 37 39 39 40 41 42 44 45 45 47 45 44 46 46 45 45 45 44 44 43 44 44 44 43 43 43 44 49 49
5 7 7 6 10 7 8 14 14 13 21 21 23 25 27 30 33 36 39 42 43 45 46 48 50 50 51 52 52 54 54 54 52 53 53 53 51 51 51 49 49 48 49 48 47 46 44 43 42
7 8 9 9 9 12 14 13 19 22 24 30 31 32 33 37 41 44 46 49 49 50 53 54 55 57 58 60 59 60 60 62 62 62 62 61 60 58 56 56 56 55 54 53 52 51 50 46 44
7 9 12 12 13 13 13 18 22 26 29 32 35 36 39 42 48 51 54 56 58 60 64 64 66 67 67 67 69 69 69 69 69 69 70 69 68 66 63 62 61 62 61 59 58 56 55 53 50
8 8 10 15 18 19 21 24 25 27 29 31 36 40 44 48 52 55 59 62 65 66 69 71 73 75 76 78 79 79 79 79 77 77 77 76 75 75 74 71 69 67 67 66 65 62 60 58 56
11 11 11 14 21 26 27 30 32 35 35 36 41 47 53 57 58 61 63 66 68 71 74 77 79 82 84 85 86 87 86 87 87 85 83 82 83 82 82 80 77 74 73 71 71 69 66 64 61
14 14 16 17 21 25 29 32 34 35 36 40 46 53 57 60 62 64 66 70 72 75 78 82 83 86 88 91 92 94 95 94 92 92 92 90 87 87 87 86 87 84 80 79 77 75 73 70 68
14 17 21 24 26 28 30 33 36 40 43 48 53 57 59 61 64 66 70 72 75 79 82 85 88 88 89 91 94 97 98 100 101 94 89 91 92 93 90 90 92 92 90 87 85 82 80 77 74
20 23 27 30 31 31 33 36 38 41 46 52 56 57 61 63 66 69 74 80 86 86 77 62 52 47 43 43 45 50 59 70 82 95 97 99 97 96 95 92 92 93 96 96 93 90 88 84 81
24 27 29 31 32 31 34 36 41 46 51 54 56 61 64 67 72 77 82 76 53 37 40 44 45 47 47 46 45 46 44 42 45 56 69 74 79 84 91 98 98 94 95 97 99 97 94 91 89
29 32 34 35 35 36 38 41 47 50 53 56 61 62 67 73 79 80 54 32 37 41 47 46 49 50 51 51 51 49 44 45 46 45 42 51 62 67 72 77 86 100 99 95 98 100 100 98 94
32 35 41 43 43 45 45 47 51 51 53 58 60 66 72 76 68 45 34 39 43 47 50 51 47 45 45 44 43 42 43 45 44 44 45 44 42 49 60 66 70 73 84 97 100 99 102 102 101
34 38 44 43 45 44 45 47 49 52 54 58 64 72 73 66 43 30 35 42 45 47 45 45 45 45 44 42 40 39 40 41 42 44 43 44 44 42 44 51 58 65 69 67 78 96 101 101 103
35 35 40 43 44 43 42 42 48 49 56 62 69 74 70 46 28 32 40 45 45 45 43 43 44 42 38 39 40 40 40 40 41 40 41 43 44 45 43 44 48 56 60 61 61 64 79 103 102
35 37 38 41 42 38 39 45 48 54 60 67 72 74 59 33 28 35 39 44 43 42 41 40 37 38 38 35 36 41 40 37 36 37 38 40 41 44 44 43 45 46 51 51 55 59 58 65 90
34 35 34 33 35 38 43 45 50 56 64 72 72 67 45 26 29 32 36 39 39 39 39 40 41 41 35 32 34 38 43 44 43 37 34 37 41 42 42 42 42 44 47 49 49 52 53 54 58
31 31 31 33 35 39 44 48 52 61 69 72 70 54 32 26 30 34 36 37 38 38 39 42 42 35 33 35 35 37 39 42 43 40 36 35 37 38 41 42 42 42 43 44 49 49 48 49 51
30 31 32 33 37 41 45 51 58 64 71 72 62 38 24 26 28 35 37 37 40 39 44 46 40 33 34 35 34 36 37 38 45 47 40 35 37 36 37 38 41 41 40 40 38 42 44 46 46
30 28 30 34 38 41 47 55 59 68 71 68 52 28 23 26 33 36 37 39 40 40 42 41 39 36 35 36 36 36 37 36 40 43 47 45 37 36 32 34 35 38 39 38 38 40 41 41 43
32 30 31 34 40 46 50 56 65 70 71 65 42 22 25 26 30 30 34 35 37 39 42 42 40 39 37 38 39 39 38 34 36 40 46 49 43 35 30 29 31 33 35 36 37 39 40 39 38
33 31 35 39 43 46 51 58 66 71 66 57 37 25 24 27 30 30 33 34 38 40 41 43 41 40 40 41 42 42 38 36 36 39 43 44 45 39 32 27 27 30 29 31 34 36 38 39 38
40 40 38 39 42 46 53 59 66 70 62 46 30 25 24 25 26 31 34 39 41 39 41 42 42 41 42 44 46 46 40 36 35 36 39 41 45 42 35 30 24 23 25 26 30 33 34 35 35
39 38 40 40 44 50 55 60 66 69 57 40 24 20 22 25 27 30 34 40 42 40 45 45 45 45 46 46 46 45 42 36 31 33 37 37 41 40 36 31 24 17 15 19 23 25 27 28 29
38 41 41 44 47 50 56 61 66 72 67 40 21 17 18 23 24 28 36 40 42 43 45 45 46 49 50 50 49 43 40 38 29 29 33 34 37 38 36 33 29 15 9 10 13 16 19 23 25
39 40 44 46 48 52 57 62 69 75 66 40 21 23 23 26 28 29 35 41 40 43 43 45 48 49 50 52 50 44 37 33 26 26 32 29 30 33 36 35 31 21 7 7 7 7 9 11 16
41 43 45 46 49 53 57 64 70 71 55 39 22 23 24 29 30 30 34 39 39 41 43 46 47 49 53 56 50 42 35 28 24 26 30 25 26 30 33 36 34 28 20 15 11 8 10 14 17
Wind_Direction
46 35 41 350 331 336 329 338 331 320 320 329 330 313 300 293 291 294 295 296 296 296 297 297 297 295 293 293 289 284 284 283 281 279 277 275 276 277 261 259 261 262 260 260 259 258 253 253 251
22 8 2 317 324 327 329 332 319 315 336 326 305 292 290 289 292 294 297 300 303 303 303 301 299 297 296 294 294 290 284 281 280 278 274 273 271 272 273 270 262 262 262 260 255 255 255 253 250
5 348 331 323 326 317 328 312 315 343 312 306 324 322 311 308 303 304 304 307 310 309 305 303 302 300 298 295 294 292 290 286 283 281 279 275 273 270 267 267 268 266 264 263 261 255 252 248 248
344 320 307 309 293 309 314 315 307 324 321 325 325 320 319 312 311 307 306 304 300 297 293 290 287 286 285 285 285 284 283 282 279 276 275 274 273 272 271 268 264 263 262 261 263 266 259 247 245
309 296 309 331 307 274 298 317 323 314 312 324 319 311 306 300 297 294 292 290 287 287 284 281 280 279 279 278 277 278 277 275 275 274 272 271 269 268 268 267 266 264 261 259 259 258 257 257 236
283 281 287 254 266 297 318 315 319 317 307 303 305 305 302 300 297 295 294 294 293 291 289 288 286 282 279 279 277 276 274 272 269 269 268 268 267 266 264 263 263 262 262 261 257 254 255 254 257
255 270 273 300 326 310 321 321 315 311 306 307 310 311 310 307 304 301 300 300 299 297 294 290 285 284 282 280 274 272 270 269 270 268 266 265 264 261 260 259 260 260 261 259 258 255 253 251 247
271 296 312 307 309 305 311 309 308 308 310 309 308 310 307 307 305 303 302 301 298 295 294 295 292 290 287 283 281 277 273 267 264 264 264 264 262 260 257 255 255 256 255 257 257 256 253 251 249
305 307 307 311 312 310 310 308 307 308 305 306 305 307 308 308 305 302 299 297 295 293 291 288 285 284 284 283 283 281 279 276 271 265 260 259 260 260 258 254 251 250 253 253 252 253 254 253 249
290 292 302 312 311 309 307 307 310 308 307 306 308 310 312 311 308 303 301 299 296 293 289 286 285 283 280 278 278 278 277 276 275 272 268 262 257 254 255 256 253 250 247 248 250 249 249 249 250
295 304 304 305 298 297 303 309 308 308 308 308 311 313 311 308 306 303 300 297 295 292 291 288 286 283 280 278 275 273 272 272 271 270 269 266 262 257 253 252 252 251 249 247 246 247 247 246 247
303 299 299 300 302 306 307 306 309 313 312 312 313 311 307 305 302 302 300 298 296 293 290 287 285 283 282 279 276 275 274 272 271 268 264 261 261 260 257 253 250 248 249 247 246 245 244 244 244
301 306 308 310 308 308 310 312 313 310 309 310 310 309 310 309 308 304 302 301 299 298 301 305 309 310 312 310 302 291 285 282 279 275 274 269 264 259 256 255 251 250 248 246 245 244 243 243 242
303 302 304 303 305 307 301 308 310 311 316 315 315 315 313 312 308 307 305 307 312 324 327 322 319 317 315 313 311 308 305 303 299 284 277 276 272 269 262 258 252 251 248 248 245 244 243 242 242
308 304 304 304 302 307 315 317 317 320 321 319 319 317 315 311 313 311 314 328 330 329 327 325 323 319 314 310 307 304 303 301 296 295 297 283 275 270 268 266 260 254 248 247 246 245 243 241 240
313 309 308 317 322 324 322 320 322 324 323 321 320 316 314 316 316 325 335 334 333 332 330 325 321 319 318 313 311 306 300 298 295 295 289 289 287 279 273 267 262 260 254 249 245 245 243 242 241
317 323 321 320 321 319 323 325 324 326 322 323 320 315 318 328 326 330 335 335 336 334 330 330 329 328 328 328 324 318 313 307 301 296 292 287 283 283 282 276 267 258 257 254 248 244 243 242 241
321 318 316 315 318 324 325 325 324 325 328 324 318 324 330 327 330 338 337 337 334 330 333 334 331 332 334 332 330 328 326 318 311 300 293 290 288 283 282 282 278 264 256 252 250 247 242 240 239
319 319 321 321 321 327 328 329 331 333 328 323 327 329 329 332 339 342 339 333 332 333 335 334 331 333 335 340 345 343 341 336 325 312 297 288 286 283 283 282 280 271 260 258 250 248 245 243 239
329 327 325 326 329 332 329 333 338 333 331 330 331 334 332 336 338 339 334 332 333 335 335 332 327 327 330 337 348 346 349 346 339 329 315 300 290 284 278 280 279 274 264 261 256 251 248 245 244
337 334 333 335 334 332 331 338 339 339 335 333 337 334 334 335 340 339 339 338 336 338 336 337 331 325 329 331 339 343 347 352 355 344 329 317 309 294 283 276 278 276 270 265 259 255 251 252 249
342 339 337 337 332 337 339 341 346 340 338 337 335 334 333 341 344 342 342 341 339 344 344 338 336 331 328 332 335 336 338 346 349 355 350 331 323 308 290 277 272 274 274 271 263 255 255 255 252
348 341 343 335 337 340 347 347 345 342 340 336 337 337 340 346 347 349 350 346 349 351 349 351 345 338 331 331 332 334 334 337 349 352 354 348 337 325 306 283 272 269 270 271 265 257 259 257 255
350 347 340 340 346 348 350 348 348 344 339 340 341 339 345 349 352 357 356 356 358 355 356 353 345 339 336 333 332 332 332 332 336 347 350 351 348 338 319 298 280 270 267 265 266 260 259 258 256
350 344 349 354 351 349 349 353 349 345 345 341 346 348 342 349 352 357 355 354 352 354 356 351 349 347 346 346 343 341 339 335 334 342 350 349 353 346 340 313 299 278 268 266 263 262 263 262 261
352 355 354 353 352 349 353 353 353 348 349 342 339 336 336 347 348 355 347 354 353 354 353 351 351 351 348 350 349 347 343 342 338 337 347 350 356 352 343 338 313 297 268 271 266 261 261 261 262
354 355 354 353 354 352 352 354 356 353 352 343 333 332 333 346 346 349 350 354 349 351 351 350 352 349 348 348 347 341 346 346 337 341 350 353 1 359 352 346 338 305 283 276 269 265 262 255 259
355 357 355 355 354 350 353 352 355 352 351 349 334 328 331 347 346 344 350 352 350 352 352 352 351 348 348 349 344 341 342 350 344 346 357 357 8 9 10 359 353 331 291 294 281 270 263 255 262
357 359 357 354 353 353 351 353 356 355 351 352 336 326 337 350 351 352 358 352 353 353 352 353 353 352 354 352 348 348 344 349 350 351 2 5 19 22 24 15 8 11 3 332 320 295 271 263 269
359 358 359 355 354 354 352 356 359 359 352 345 334 326 332 349 354 356 356 355 357 354 355 356 357 356 357 354 351 351 355 357 359 359 6 12 31 30 29 30 18 21 30 38 31 4 333 300 296
Height
5897 5896 5894 5893 5894 5891 5889 5890 5886 5885 5886 5887 5886 5883 5880 5877 5875 5875 5869 5867 5866 5864 5862 5860 5858 5856 5854 5852 5851 5849 5848 5847 5846 5845 5844 5842 5841 5839 5839 5839 5839 5839 5840 5841 5841 5841 5841 5842 5843
5896 5895 5893 5892 5891 5890 5889 5888 5885 5883 5884 5883 5880 5879 5877 5875 5873 5870 5868 5865 5863 5861 5858 5856 5853 5851 5849 5847 5845 5843 5841 5839 5837 5836 5835 5834 5833 5832 5831 5831 5831 5831 5832 5833 5833 5834 5834 5835 5835
5896 5895 5894 5892 5890 5889 5888 5885 5882 5884 5882 5880 5880 5878 5876 5873 5871 5868 5866 5863 5860 5858 5854 5851 5847 5844 5841 5838 5836 5834 5832 5831 5829 5828 5826 5825 5824 5823 5822 5822 5822 5823 5823 5824 5824 5825 5826 5827 5828
5895 5895 5893 5891 5889 5886 5885 5885 5882 5881 5881 5881 5877 5874 5871 5868 5866 5863 5860 5857 5853 5850 5846 5843 5839 5835 5831 5828 5826 5824 5821 5820 5818 5817 5816 5815 5814 5813 5813 5813 5813 5813 5813 5815 5813 5815 5815 5817 5818
5894 5892 5890 5888 5887 5885 5883 5883 5883 5879 5878 5877 5874 5870 5866 5863 5859 5856 5852 5848 5844 5840 5836 5832 5828 5824 5819 5816 5813 5810 5808 5807 5806 5805 5804 5803 5803 5802 5801 5802 5802 5802 5803 5804 5805 5805 5806 5804 5806
5891 5890 5889 5887 5885 5886 5886 5883 5881 5878 5872 5873 5871 5866 5862 5857 5853 5849 5845 5840 5836 5831 5827 5823 5819 5814 5809 5805 5803 5799 5797 5794 5792 5790 5790 5789 5789 5790 5790 5789 5789 5790 5791 5793 5794 5794 5796 5797 5800
5890 5888 5886 5885 5886 5884 5882 5881 5878 5875 5871 5866 5862 5859 5856 5850 5845 5839 5834 5830 5827 5822 5816 5811 5805 5800 5796 5791 5789 5785 5782 5779 5776 5774 5772 5772 5772 5773 5775 5776 5776 5777 5778 5779 5780 5783 5785 5787 5789
5889 5889 5887 5884 5882 5881 5882 5879 5876 5871 5867 5862 5857 5851 5846 5840 5836 5832 5826 5821 5814 5806 5802 5798 5792 5785 5780 5776 5770 5767 5763 5762 5759 5757 5755 5754 5753 5755 5757 5758 5760 5762 5764 5765 5766 5768 5771 5775 5778
5890 5889 5886 5882 5879 5878 5877 5876 5871 5867 5862 5856 5850 5844 5839 5833 5827 5821 5815 5807 5800 5794 5787 5781 5775 5769 5762 5757 5750 5745 5744 5741 5739 5737 5736 5734 5734 5735 5736 5738 5740 5743 5746 5749 5751 5754 5757 5761 5765
5889 5887 5886 5882 5877 5872 5871 5870 5866 5861 5855 5849 5842 5835 5829 5822 5815 5807 5800 5794 5786 5778 5769 5762 5755 5748 5742 5736 5730 5725 5721 5717 5714 5712 5711 5712 5713 5714 5714 5716 5718 5722 5725 5729 5733 5738 5741 5745 5750
5886 5883 5881 5879 5875 5870 5866 5862 5858 5854 5849 5842 5836 5830 5821 5811 5803 5795 5788 5779 5769 5761 5752 5742 5732 5723 5715 5709 5704 5699 5695 5691 5688 5684 5683 5684 5686 5690 5692 5693 5695 5700 5704 5709 5712 5718 5723 5728 5733
5885 5880 5876 5874 5873 5869 5864 5859 5853 5847 5840 5833 5827 5820 5811 5804 5795 5786 5774 5763 5751 5740 5729 5719 5708 5699 5689 5682 5676 5669 5664 5659 5657 5657 5657 5654 5656 5661 5665 5669 5670 5674 5680 5686 5691 5695 5702 5709 5715
5884 5879 5875 5870 5866 5863 5858 5853 5848 5841 5835 5827 5818 5809 5800 5789 5780 5767 5755 5742 5728 5715 5704 5694 5685 5677 5670 5662 5655 5649 5643 5636 5630 5626 5623 5623 5626 5630 5633 5639 5644 5648 5653 5660 5667 5674 5681 5688 5696
5880 5875 5870 5866 5862 5859 5855 5850 5841 5833 5826 5815 5806 5796 5784 5773 5760 5748 5735 5722 5711 5703 5696 5688 5679 5670 5661 5653 5645 5638 5630 5623 5616 5609 5602 5595 5593 5594 5600 5607 5614 5621 5627 5633 5641 5650 5657 5665 5672
5875 5869 5864 5860 5859 5854 5848 5841 5833 5825 5815 5803 5795 5783 5773 5758 5743 5729 5718 5710 5703 5695 5687 5679 5669 5660 5650 5641 5633 5626 5619 5611 5604 5597 5589 5582 5577 5573 5572 5574 5579 5591 5599 5605 5612 5622 5629 5639 5647
5870 5865 5857 5850 5846 5843 5838 5832 5822 5815 5806 5796 5785 5772 5758 5744 5728 5714 5708 5703 5695 5686 5677 5668 5659 5650 5640 5630 5621 5613 5605 5598 5590 5583 5577 5572 5565 5559 5554 5555 5557 5559 5564 5577 5585 5592 5601 5614 5623
5865 5858 5848 5845 5842 5838 5833 5826 5816 5808 5797 5787 5773 5759 5745 5725 5713 5708 5701 5695 5688 5678 5668 5658 5648 5638 5628 5617 5609 5601 5593 5585 5577 5569 5563 5557 5552 5548 5543 5539 5538 5538 5540 5546 5555 5565 5574 5585 5596
5860 5856 5848 5842 5837 5833 5828 5821 5812 5802 5790 5776 5761 5741 5725 5714 5706 5700 5692 5687 5679 5670 5660 5650 5640 5631 5621 5611 5602 5592 5584 5574 5564 5556 5550 5543 5538 5534 5530 5526 5521 5519 5521 5527 5532 5538 5544 5558 5568
5857 5851 5845 5837 5831 5828 5821 5814 5804 5792 5780 5764 5742 5729 5713 5703 5699 5693 5687 5680 5671 5662 5651 5642 5633 5625 5615 5606 5596 5586 5576 5566 5557 5546 5537 5529 5524 5519 5514 5512 5507 5504 5506 5511 5514 5520 5525 5532 5539
5851 5846 5841 5835 5828 5821 5813 5807 5797 5784 5767 5746 5730 5713 5703 5698 5695 5691 5685 5675 5664 5653 5645 5636 5626 5617 5608 5600 5591 5580 5569 5559 5547 5537 5529 5520 5513 5507 5502 5499 5495 5492 5493 5495 5499 5502 5508 5514 5518
5848 5842 5836 5830 5823 5817 5807 5800 5789 5772 5753 5733 5719 5705 5699 5694 5690 5686 5677 5667 5657 5648 5638 5628 5618 5609 5600 5593 5584 5575 5564 5553 5541 5529 5519 5510 5502 5495 5489 5486 5483 5481 5480 5482 5484 5487 5492 5498 5501
5844 5837 5831 5825 5819 5810 5801 5791 5777 5761 5741 5725 5711 5701 5697 5691 5687 5680 5671 5662 5652 5641 5630 5621 5611 5603 5594 5585 5577 5567 5557 5548 5536 5525 5515 5505 5494 5484 5477 5473 5471 5470 5468 5469 5472 5475 5479 5482 5486
5843 5836 5829 5822 5813 5804 5793 5780 5770 5753 5736 5719 5707 5696 5693 5687 5680 5674 5665 5656 5646 5637 5628 5616 5606 5598 5589 5578 5568 5559 5550 5541 5531 5520 5508 5496 5485 5474 5466 5461 5459 5458 5458 5459 5460 5463 5466 5469 5472
5837 5833 5826 5818 5807 5796 5787 5778 5762 5746 5728 5712 5701 5694 5688 5684 5678 5672 5664 5655 5645 5635 5625 5614 5605 5594 5584 5573 5562 5552 5542 5533 5525 5515 5503 5492 5478 5466 5457 5450 5447 5446 5446 5447 5449 5451 5454 5456 5460
5836 5830 5821 5811 5800 5792 5783 5771 5756 5737 5720 5704 5695 5691 5685 5680 5674 5666 5660 5652 5642 5632 5622 5613 5602 5591 5581 5570 5558 5546 5535 5526 5517 5509 5499 5488 5473 5461 5451 5443 5439 5436 5435 5436 5437 5439 5442 5445 5448
5828 5821 5815 5807 5799 5790 5777 5766 5753 5732 5715 5700 5693 5690 5684 5678 5673 5664 5657 5646 5638 5628 5619 5610 5598 5588 5577 5564 5553 5542 5530 5520 5511 5504 5496 5484 5470 5458 5447 5438 5431 5427 5426 5427 5427 5428 5431 5433 5435
5826 5820 5812 5804 5794 5783 5775 5762 5748 5730 5715 5702 5694 5690 5685 5678 5671 5663 5654 5644 5636 5626 5615 5604 5595 5585 5573 5560 5549 5538 5527 5516 5507 5501 5491 5480 5468 5456 5445 5434 5426 5421 5419 5418 5418 5419 5421 5423 5425
5826 5819 5809 5799 5789 5781 5770 5758 5746 5730 5714 5699 5690 5687 5680 5675 5669 5662 5652 5642 5632 5623 5614 5603 5593 5581 5568 5556 5544 5533 5522 5513 5504 5496 5488 5478 5468 5456 5445 5433 5423 5416 5413 5412 5411 5412 5413 5414 5416
5826 5816 5805 5797 5788 5777 5765 5754 5738 5720 5702 5693 5688 5682 5675 5668 5663 5657 5648 5640 5631 5622 5613 5602 5590 5578 5566 5553 5539 5528 5518 5509 5501 5494 5486 5477 5468 5458 5447 5436 5424 5415 5410 5408 5407 5407 5408 5408 5408
5822 5814 5805 5795 5785 5775 5764 5751 5734 5716 5701 5691 5685 5679 5674 5667 5659 5653 5646 5639 5631 5622 5611 5599 5588 5575 5562 5549 5535 5524 5514 5506 5499 5492 5485 5476 5468 5460 5451 5440 5429 5420 5412 5410 5408 5407 5406 5404 5402